Location: Champcueil
(48.5159°N, 2.4467°E)
Time: 02:49:24
(UTC+00:00)

Daily predictions for brighter satellites

Satellite Brightness Start Highest point End
(mag) Time Altitude Azimuth Time Altitude Azimuth Time Altitude Azimuth
Cosmos 2297 Rocket 3.3 00:03:59 10° NNW 00:09:20 41° NE 00:14:38 10° ESE
Cosmos 1782 3.0 00:07:19 10° N 00:10:55 53° ENE 00:11:51 40° SE
NOSS 3-4 (A) 4.5 00:05:59 10° NW 00:12:22 39° WSW 00:15:34 28° SSW
NOSS 3-4 (C) 4.5 00:06:03 10° NW 00:12:27 40° WSW 00:15:40 28° SSW
SL-08 ROCKET BODY 4.4 00:11:57 32° SSW 00:14:55 84° W 00:20:55 10° N
Cosmos 2112 Rocket 4.5 00:09:47 10° NNW 00:14:58 58° ENE 00:18:23 21° SE
BREEZE-M DEB (TANK) 3.8 00:11:53 10° W 00:16:00 87° N 00:32:12 10° E
Cosmos 1975 Rocket 4.5 00:14:30 20° WSW 00:16:30 29° WNW 00:20:20 10° N
Cosmos 1818 4.1 00:12:38 10° NW 00:17:41 40° WSW 00:19:10 33° SSW
Cosmos 2058 2.9 00:18:00 47° SSE 00:18:58 66° E 00:22:54 10° NNE
Cosmos 44 2.9 00:19:22 40° SW 00:20:53 89° ESE 00:25:19 10° NE
Cosmos 2228 4.2 00:21:17 10° NNW 00:24:52 28° W 00:25:54 25° WSW
Cosmos 1680 Rocket 3.5 00:25:10 10° NNW 00:30:28 88° ENE 00:33:13 29° SSE
RESURS DK-1 3.3 00:28:21 10° NNW 00:32:12 44° NE 00:34:57 17° ESE
Cosmos 1697 Rocket 4.3 00:32:50 16° SE 00:35:30 23° E 00:39:48 10° NE
H-2A R/B 2.7 00:34:14 32° SE 00:35:40 55° ENE 00:39:24 10° N
Cosmos 1656 3.9 00:33:45 32° S 00:36:12 58° ESE 00:41:40 10° NE
Cosmos 923 Rocket 4.1 00:32:44 10° NNW 00:37:52 61° WSW 00:39:56 35° S
SeaSat 1 3.7 00:33:22 10° ESE 00:37:53 38° NE 00:42:24 10° NNW
Cosmos 2227 Rocket 3.7 00:35:33 10° NNW 00:40:45 35° NE 00:45:55 10° ESE
Cosmos 1400 Rocket 3.4 00:39:14 10° NNW 00:42:50 37° W 00:43:29 34° WSW
BlueWalker 3 3.3 00:41:53 10° WNW 00:45:20 39° N 00:48:49 10° ENE
Cosmos 1356 Rocket 4.2 00:41:33 10° N 00:45:22 44° ENE 00:47:29 23° SE
Cosmos 1602 3.5 00:46:12 49° SE 00:46:42 56° E 00:49:53 10° NNE
Cosmos 1937 Rocket 3.7 00:47:15 29° SW 00:49:50 63° WNW 00:54:57 10° NNE
Cosmos-2242 4.4 00:46:20 10° N 00:50:09 33° ENE 00:53:05 15° SE
ISS -2.8 00:50:06 10° WNW 00:53:22 50° N 00:56:40 10° E
H-2A R/B 4.3 00:53:02 10° NE 00:55:30 15° E 00:58:00 10° SE
Cosmos 2315 Rocket 4.1 00:51:15 10° NNW 00:57:36 71° W 01:01:14 27° S
Cosmos 1441 Rocket 3.9 00:58:03 30° SE 00:59:08 39° E 01:02:26 10° NNE
Landsat 4 2.8 01:03:33 68° SSE 01:03:51 87° E 01:06:41 10° NNW
Cosmos 1933 3.1 01:01:47 10° NNW 01:05:40 80° W 01:07:02 39° S
DNEPR-1 R/B 4.2 01:07:41 10° NW 01:11:32 34° WSW 01:12:14 32° SW
Meteor 2-3 Rocket 3.9 01:10:11 26° S 01:13:36 76° E 01:19:25 10° NNE
CZ-2C R/B 2.9 01:11:02 28° SSW 01:13:47 56° W 01:19:16 10° NNW
Cosmos 1048 Rocket 4.1 01:16:53 10° NNW 01:22:18 85° ENE 01:26:52 15° SSE
Cosmos 2058 Rocket 3.0 01:18:37 10° N 01:23:03 84° W 01:25:27 27° S
Cosmos 1315 Rocket 2.6 01:19:29 10° NNW 01:23:17 89° ENE 01:25:07 30° S
Cosmos 1655 Rocket 4.2 01:20:19 25° SSW 01:24:11 63° WNW 01:30:33 10° N
IDEFIX/ARIANE 42P 2.8 01:23:46 10° NNE 01:28:57 63° ESE 01:32:15 22° S
Lacrosse 5 rocket 3.6 01:31:18 10° NW 01:34:39 26° N 01:37:59 10° ENE
CZ-2C R/B 3.6 01:31:47 10° N 01:36:24 43° WNW 01:39:09 22° SW
SL-08 R/B 4.5 01:33:23 21° S 01:37:40 80° E 01:43:47 10° N
Cosmos 2360 4.3 01:36:32 23° SW 01:40:13 72° WNW 01:45:56 10° NNE
Meteor 1-26 Rocket 4.1 01:34:53 10° NNW 01:40:20 87° WSW 01:44:35 17° S
CZ-4C R/B 3.5 01:37:36 10° W 01:41:53 32° NNW 01:47:15 10° NE
ADEOS II 3.8 01:40:33 10° NE 01:44:57 27° E 01:49:19 10° SSE
Cosmos 1867 4.3 01:40:43 15° WSW 01:45:05 48° NW 01:50:23 10° NNE
Cosmos 2263 Rocket 3.0 01:41:09 10° NNW 01:46:43 53° ENE 01:52:11 10° SE
Gbstr 26 Del rocket 4.1 01:44:47 10° WNW 01:51:04 87° SSW 01:58:33 10° ESE
Cosmos 2297 Rocket 2.7 01:48:08 10° NW 01:53:20 39° WSW 01:56:44 20° SSW
CZ-2D R/B 2.9 01:51:25 10° NNE 01:56:28 44° E 02:01:07 12° S
MOZ.5/SAFIR/RUBIN 5/SL-8 3.7 01:56:34 17° S 02:00:05 68° WSW 02:04:44 10° NNW
BREEZE-M DEB (TANK) 1.5 01:59:41 10° W 02:02:12 50° SSW 02:04:24 10° SE
Meteor 2-6 Rocket 4.3 02:00:44 10° N 02:06:26 84° ENE 02:12:16 10° SSE
Cosmos 1758 Rocket 3.5 02:05:25 20° SSW 02:08:27 82° WNW 02:12:52 10° N
Cosmos 1602 Rocket 3.7 02:05:12 16° S 02:08:31 70° E 02:12:50 10° NNE
RESURS DK-1 3.7 02:06:26 10° WNW 02:09:23 20° WSW 02:10:16 19° SW
Cosmos 1980 Rocket 2.6 02:05:14 15° S 02:09:40 54° ESE 02:15:08 10° NE
H-2A R/B 4.2 02:09:35 13° WSW 02:10:23 13° W 02:12:15 10° WNW
Resurs 1-4 Rocket 2.4 02:05:31 10° NNE 02:10:48 64° ESE 02:15:34 13° S
Tiangong -0.3 02:10:34 17° S 02:10:52 17° SSE 02:13:08 10° ESE
Nadezhda 1 Rocket 4.0 02:06:37 10° NNW 02:12:55 77° W 02:19:04 10° S
Cosmos 1626 Rocket 3.8 02:12:06 20° SSW 02:14:59 56° WNW 02:19:18 10° N
SeaSat 1 3.0 02:11:34 15° S 02:15:14 38° WSW 02:19:50 10° NW
Cosmos 1745 Rocket 4.1 02:12:25 14° S 02:18:02 88° W 02:24:27 10° N
Cosmos 1697 Rocket 2.9 02:14:32 17° SW 02:18:55 66° WNW 02:24:36 10° NNE
H-2A R/B 4.3 02:16:13 10° NE 02:19:44 19° E 02:23:10 10° SE
Cosmos 614 Rocket 3.8 02:17:50 10° NNW 02:22:54 78° WSW 02:27:56 10° SSE
FENGYUN 3A 3.7 02:17:57 10° NNE 02:23:21 76° WNW 02:27:58 14° SSW
BlueWalker 3 1.8 02:19:41 10° WNW 02:23:22 83° NNE 02:27:00 10° ESE
Cosmos 1346 Rocket 4.5 02:20:25 10° SSE 02:23:31 26° E 02:26:39 10° NE
Cosmos 2227 Rocket 2.5 02:19:31 10° NW 02:24:57 47° WSW 02:30:20 10° S
MSX 4.2 02:21:06 10° N 02:26:39 52° WNW 02:31:23 14° SW
Cosmos-2242 4.2 02:23:40 10° NW 02:27:05 25° W 02:29:26 16° SW
ISS -3.9 02:26:52 10° WNW 02:30:13 67° SSW 02:33:33 10° SE
Okean 1 3.3 02:27:35 10° NNW 02:31:14 52° W 02:34:27 13° S
H-2A R/B 2.2 02:27:10 10° N 02:31:16 60° WNW 02:34:41 15° SSW
Cosmos 1709 Rocket 4.1 02:25:58 10° S 02:32:21 88° E 02:38:44 10° N
ATLAS 2AS CENTAUR R/B 2.8 02:30:48 10° NW 02:37:38 84° NE 02:44:21 10° SE
USA 290 2.3 02:35:14 10° NNW 02:38:32 81° ENE 02:41:50 10° SSE
Okean 1-7 Rocket 3.6 02:35:08 13° SSW 02:39:08 74° W 02:43:38 10° N
SAR-Lupe-3 4.2 02:36:23 10° SSE 02:39:18 77° ENE 02:42:15 10° NNW
NPP 4.4 02:37:54 10° N 02:42:56 41° WNW 02:47:39 11° SW
ALOS 2.3 02:39:33 10° NNE 02:44:09 80° ESE 02:48:43 10° SSW
Cosmos 1844 Rocket 4.5 02:41:06 10° NNW 02:46:19 36° NE 02:51:28 10° ESE
Cosmos 2221 2.8 02:43:48 10° NNW 02:47:56 50° W 02:52:02 10° S
Cosmos 1743 3.1 02:46:17 10° S 02:49:32 52° E 02:52:49 10° NNE
Cosmos 1125 Rocket 4.1 02:46:24 12° SW 02:51:07 47° WNW 02:56:14 10° NNE
Cosmos 192 4.4 02:46:47 12° SSW 02:51:26 76° WNW 02:56:24 10° NNE
DELTA 2 R/B (1) 4.3 02:48:24 10° WSW 02:53:21 33° S 02:58:18 10° ESE
Cosmos 2298 Rocket 4.1 02:48:32 10° SSW 02:53:51 83° ESE 02:59:12 10° NNE
Cosmos 2151 3.1 02:51:45 11° SSW 02:55:45 56° WNW 02:59:52 10° N
Cosmos 1953 Rocket 3.7 02:58:08 10° S 03:02:29 75° E 03:06:51 10° NNE
Cosmos 2322 Rocket 4.3 02:59:57 10° SSE 03:04:06 21° E 03:08:15 10° NE
Meteor 1-19 Rocket 4.2 03:01:19 10° NNW 03:06:42 65° W 03:12:10 10° S
Cosmos 2369 3.8 03:01:31 10° SSW 03:07:11 90° NNW 03:12:53 10° NNE
IDEFIX/ARIANE 42P 4.1 03:04:03 10° N 03:07:58 22° WNW 03:11:53 10° WSW
Cosmos 2333 Rocket 4.2 03:04:38 10° SSE 03:09:08 25° ESE 03:13:38 10° NE
Meteor 2-4 Rocket 4.3 03:04:55 10° N 03:10:19 58° ENE 03:15:35 10° SSE
Lacrosse 5 rocket 1.8 03:08:42 10° NW 03:12:37 63° NNE 03:16:29 10° ESE
Cosmos 2082 3.8 03:09:24 10° NW 03:14:59 57° WSW 03:20:29 10° S
Meteor 1-20 Rocket 4.4 03:09:30 10° SSW 03:15:20 73° WNW 03:21:10 10° N
Meteor 1-28 Rocket 3.0 03:12:11 10° SSE 03:15:32 83° E 03:18:55 10° NNW
USA 234 3.9 03:10:21 10° ENE 03:16:37 47° SE 03:22:51 10° SSW
Cosmos 1707 2.9 03:16:59 10° N 03:20:16 60° ENE 03:23:30 10° SSE
CZ-3 R/B 4.4 02:53:48 10° WSW 03:24:49 36° SSW 03:34:56 10° SE
